| time (UTC) | temp C | wind direction | speed KPH | gust KPH | rain 1hr cm | rain 24hr cm | rain mn cm | humidity % | barometer mb |
| 20260505014604 | 16 | 91 | 1.6 | 8.0 | 0.00 | 0.00 | 0.00 | 53 | 1008.5 |
| 20260505013050 | 15 | 91 | 0.0 | 3.2 | 0.00 | 0.00 | 0.00 | 55 | 1008.2 |
| 20260505011556 | 15 | 118 | 0.0 | 6.4 | 0.00 | 0.00 | 0.00 | 59 | 1007.8 |
| 20260505010048 | 16 | 0 | 0.0 | 3.2 | 0.00 | 0.00 | 0.00 | 53 | 1007.2 |
| 20260505004550 | 16 | 0 | 0.0 | 0.0 | 0.00 | 0.00 | 0.00 | 49 | 1007.0 |
| 20260505003047 | 16 | 0 | 0.0 | 1.6 | 0.00 | 0.00 | 0.00 | 48 | 1006.8 |
| 20260505001547 | 17 | 0 | 0.0 | 0.0 | 0.00 | 0.00 | 0.00 | 44 | 1006.5 |
| 20260505000105 | 17 | 0 | 0.0 | 0.0 | 0.00 | 0.00 | 0.00 | 43 | 1006.5 |
| 20260504234551 | 18 | 0 | 0.0 | 0.0 | 0.00 | 0.00 | 0.00 | 42 | 1006.3 |
| 20260504233104 | 19 | 0 | 0.0 | 1.6 | 0.00 | 0.00 | 0.00 | 41 | 1006.0 |
| 20260504231549 | 20 | 0 | 0.0 | 3.2 | 0.00 | 0.00 | 0.00 | 39 | 1005.7 |
| 20260504230047 | 20 | 0 | 0.0 | 6.4 | 0.00 | 0.00 | 0.00 | 38 | 1005.5 |
| 20260504224548 | 20 | 0 | 0.0 | 1.6 | 0.00 | 0.00 | 0.00 | 38 | 1005.3 |
| 20260504223112 | 20 | 0 | 0.0 | 1.6 | 0.00 | 0.00 | 0.00 | 38 | 1005.2 |
| 20260504221549 | 21 | 0 | 1.6 | 6.4 | 0.00 | 0.00 | 0.00 | 36 | 1005.3 |
| 20260504220048 | 21 | 137 | 0.0 | 9.7 | 0.00 | 0.00 | 0.00 | 35 | 1005.2 |
| 20260504214548 | 21 | 0 | 0.0 | 6.4 | 0.00 | 0.00 | 0.00 | 35 | 1005.1 |
| 20260504213059 | 22 | 0 | 0.0 | 8.0 | 0.00 | 0.00 | 0.00 | 34 | 1005.2 |
| 20260504211551 | 22 | 297 | 3.2 | 14.5 | 0.00 | 0.00 | 0.00 | 32 | 1005.3 |
| 20260504210054 | 22 | 117 | 0.0 | 11.3 | 0.00 | 0.00 | 0.00 | 33 | 1005.0 |
| 20260504204550 | 22 | 128 | 0.0 | 6.4 | 0.00 | 0.00 | 0.00 | 33 | 1005.0 |
| 20260504203059 | 21 | 137 | 1.6 | 9.7 | 0.00 | 0.00 | 0.00 | 33 | 1005.1 |
| 20260504201554 | 22 | 0 | 1.6 | 11.3 | 0.00 | 0.00 | 0.00 | 31 | 1005.0 |
| 20260504200051 | 23 | 0 | 1.6 | 9.7 | 0.00 | 0.00 | 0.00 | 33 | 1005.0 |
| 20260504194550 | 23 | 143 | 1.6 | 9.7 | 0.00 | 0.00 | 0.00 | 31 | 1005.2 |
| 20260504193055 | 23 | 142 | 0.0 | 11.3 | 0.00 | 0.00 | 0.00 | 31 | 1005.3 |
| 20260504191554 | 22 | 129 | 1.6 | 8.0 | 0.00 | 0.00 | 0.00 | 34 | 1005.4 |
| 20260504190049 | 21 | 127 | 3.2 | 9.7 | 0.00 | 0.00 | 0.00 | 33 | 1005.4 |
| 20260504184549 | 21 | 101 | 4.8 | 16.1 | 0.00 | 0.00 | 0.00 | 32 | 1005.6 |
| 20260504183053 | 23 | 108 | 1.6 | 16.1 | 0.00 | 0.00 | 0.00 | 30 | 1005.6 |
| 20260504181554 | 23 | 173 | 3.2 | 12.9 | 0.00 | 0.00 | 0.00 | 31 | 1005.6 |
| 20260504180055 | 23 | 0 | 1.6 | 12.9 | 0.00 | 0.00 | 0.00 | 31 | 1005.5 |
| 20260504174548 | 22 | 117 | 3.2 | 12.9 | 0.00 | 0.00 | 0.00 | 33 | 1005.6 |
| 20260504173050 | 22 | 129 | 3.2 | 16.1 | 0.00 | 0.00 | 0.00 | 32 | 1005.8 |
| 20260504171550 | 22 | 37 | 1.6 | 12.9 | 0.00 | 0.00 | 0.00 | 31 | 1005.8 |
| 20260504081602 | 5 | 0 | 0.0 | 0.0 | 0.00 | 0.00 | 0.00 | 79 | 1009.2 |
| 20260504044559 | 2 | 0 | 0.0 | 0.0 | 0.00 | 0.00 | 0.00 | 81 | 1009.2 |
| 20260504043053 | 2 | 0 | 0.0 | 0.0 | 0.00 | 0.00 | 0.00 | 80 | 1009.1 |
| 20260504041553 | 3 | 0 | 0.0 | 0.0 | 0.00 | 0.00 | 0.00 | 80 | 1009.2 |
| 20260504040106 | 3 | 0 | 0.0 | 0.0 | 0.00 | 0.00 | 0.00 | 75 | 1009.1 |
| 20260504034612 | 3 | 0 | 0.0 | 0.0 | 0.00 | 0.00 | 0.00 | 74 | 1009.0 |
| 20260504033056 | 3 | 0 | 0.0 | 0.0 | 0.00 | 0.00 | 0.00 | 73 | 1008.9 |
| 20260504031547 | 4 | 0 | 0.0 | 0.0 | 0.00 | 0.00 | 0.00 | 73 | 1008.8 |
| 20260504030118 | 3 | 0 | 0.0 | 0.0 | 0.00 | 0.00 | 0.00 | 73 | 1008.6 |
| 20260504024559 | 3 | 0 | 0.0 | 0.0 | 0.00 | 0.00 | 0.00 | 73 | 1008.6 |
| 20260504023050 | 3 | 0 | 0.0 | 0.0 | 0.00 | 0.00 | 0.00 | 73 | 1008.7 |
| 20260504021554 | 4 | 0 | 0.0 | 0.0 | 0.00 | 0.00 | 0.00 | 70 | 1008.6 |
| 20260504020106 | 5 | 0 | 0.0 | 0.0 | 0.00 | 0.00 | 0.00 | 71 | 1008.6 |